Weather History for KYIP - June, 2012

Change the Weather History Date:

Sunday, June 10, 2012

  Actual Average Record
Temperature  
Mean Temperature 78 °F -  
Max Temperature 93 °F 79 °F 93 °F (1999)
Min Temperature 63 °F 55 °F 38 °F (1980)
Cooling Degree Days 13    
Growing Degree Days 28 (Base 50)    
Moisture  
Dew Point 53 °F    
Average Humidity 43    
Maximum Humidity 70    
Minimum Humidity 24    
Precipitation  
Precipitation 0.00 in - - ()
Sea Level Pressure  
Sea Level Pressure 30.00 in    
Wind  
Wind Speed 5 mph (South)    
Max Wind Speed 14 mph    
Max Gust Speed 18 mph    
Visibility 10 miles    
Events      
Averages and records for this station are not official NWS values.
T = Trace of Precipitation, MM = Missing Value Source: NWS Daily Summary

Daily Weather History Graph

Daily Weather History Graph

Search for Another Location

Airport or City:

Trip Planner

Search our weather history database for the weather conditions in past years. The results will help you decide how hot, cold, wet, or windy it might be!

Date:

Astronomy

Jun. 10, 2012 Rise Set
Actual Time 5:57 AM EDT 9:10 PM EDT
Civil Twilight 5:22 AM EDT 9:44 PM EDT
Nautical Twilight 4:38 AM EDT 10:29 PM EDT
Astronomical Twilight 3:45 AM EDT 11:22 PM EDT
Moon 12:56 AM EDT (6/10) 12:51 PM EDT (6/10)
Length of Visible Light 16h 21m
Length of Day
15h 12m
Waning Gibbous, 58% of the Moon is Illuminated
Jun 10
Waning Gibbous
Jun 11
Last Quarter
Jun 19
New
Jun 26
First Quarter
Jul 3
Full

Hourly Weather History & Observations

Time (EDT) Temp. Heat Index Dew Point Humidity Pressure Visibility Wind Dir Wind Speed Gust Speed Precip Events Conditions
12:53 AM 68.0 °F - 54.0 °F 61% 29.95 in 10.0 mi Calm Calm - N/A   Clear
1:53 AM 69.1 °F - 53.1 °F 57% 29.95 in 10.0 mi SSW 5.8 mph - N/A   Clear
2:53 AM 66.2 °F - 53.6 °F 64% 29.98 in 10.0 mi SW 5.8 mph - N/A   Clear
3:53 AM 66.0 °F - 52.0 °F 60% 29.97 in 10.0 mi SSW 3.5 mph - N/A   Clear
4:53 AM 64.0 °F - 52.0 °F 65% 29.97 in 10.0 mi Calm Calm - N/A   Clear
5:53 AM 64.9 °F - 52.0 °F 63% 29.99 in 10.0 mi SW 3.5 mph - N/A   Clear
6:53 AM 63.0 °F - 53.1 °F 70% 30.01 in 10.0 mi South 3.5 mph - N/A   Clear
7:53 AM 72.0 °F - 54.0 °F 53% 30.03 in 10.0 mi SSW 5.8 mph - N/A   Clear
8:53 AM 77.0 °F - 54.0 °F 45% 30.03 in 10.0 mi SSW 4.6 mph - N/A   Clear
9:53 AM 82.0 °F 81.4 °F 55.0 °F 39% 30.03 in 10.0 mi SW 5.8 mph - N/A   Clear
10:53 AM 87.1 °F 85.3 °F 55.0 °F 33% 30.04 in 10.0 mi Calm Calm - N/A   Clear
11:53 AM 89.1 °F - 50.0 °F 26% 30.03 in 10.0 mi Variable 3.5 mph - N/A   Clear
12:53 PM 91.9 °F - 51.1 °F 25% 30.04 in 10.0 mi SSE 8.1 mph - N/A   Clear
1:53 PM 91.9 °F - 51.1 °F 25% 30.02 in 10.0 mi South 11.5 mph 18.4 mph N/A   Clear
2:53 PM 91.9 °F - 51.1 °F 25% 30.00 in 10.0 mi South 5.8 mph - N/A   Clear
3:53 PM 93.0 °F - 51.1 °F 24% 29.99 in 10.0 mi SE 8.1 mph - N/A   Clear
4:53 PM 93.0 °F 90.6 °F 53.1 °F 26% 29.98 in 10.0 mi SSE 10.4 mph - N/A   Clear
5:53 PM 91.9 °F 89.5 °F 54.0 °F 27% 29.98 in 10.0 mi SE 13.8 mph - N/A   Clear
6:53 PM 90.0 °F 87.7 °F 54.0 °F 29% 29.98 in 10.0 mi SE 13.8 mph - N/A   Clear
7:53 PM 86.0 °F 84.5 °F 55.0 °F 35% 29.98 in 10.0 mi SE 11.5 mph - N/A   Clear
8:53 PM 82.0 °F 81.3 °F 54.0 °F 38% 29.98 in 10.0 mi SE 10.4 mph - N/A   Clear
9:53 PM 75.9 °F - 55.0 °F 48% 29.99 in 10.0 mi SE 6.9 mph - 0.00 in   Clear
10:53 PM 75.0 °F - 55.0 °F 50% 30.00 in 10.0 mi ESE 8.1 mph - N/A   Clear
11:53 PM 75.0 °F - 57.0 °F 53% 29.98 in 10.0 mi SE 9.2 mph - N/A   Clear